Regional Weather Roundup
Issued by NWS

Home | Current Version | Previous Version | Text Only | Print | Product List | Glossary Off
Versions: 1 2 3 4 5 6 7 8 9 10 11 12 13 14 15 16 17 18 19 20 21 22 23 24 25 26 27 28 29 30 31 32 33 34 35 36 37 38 39 40 41 42 43 44 45 46 47 48 49 50

000
ASUS43 KIND 050459
RWRIN

WEATHER ROUNDUP FOR INDIANA
NATIONAL WEATHER SERVICE INDIANAPOLIS IN
100 AM EDT SUN JUL 05 2015

NOTE: "FAIR" INDICATES FEW OR NO CLOUDS BELOW 12,000 FEET WITH NO
SIGNIFICANT WEATHER AND/OR OBSTRUCTIONS TO VISIBILITY.

* - STATION DOES NOT REPORT WEATHER SUCH AS PRECIPITATION OR FOG.

+ - STATION NOT QUALITY CONTROLLED BY THE NATIONAL WEATHER SERVICE.
    USE DATA WITH CAUTION...ESPECIALLY DEWPOINT AND RELATIVE
    HUMIDITY OBSERVATIONS.

INZ001>003-010>013-019-020-050600-
NORTHWEST INDIANA

CITY           SKY/WX    TMP DP  RH WIND       PRES   REMARKS
MONTICELLO +   CLEAR     64  64  99 CALM      30.05R FOG
RENSSELAER +   CLEAR     64  64 100 CALM      30.05S FOG

$$

LMZ046-743>745-050600-
SOUTHERN LAKE MICHIGAN

STATION/POSITION TIME  TEMP    WIND        PRES    WAVE
                       AIR SEA DIR/SP/G            HT
                 (UTC) (F)     (DEG/KT/KT) (MB)    (FT)
BURNS HARBOR     0400   73     140/  8/ 10 1017.6S
MICHIGAN CITY    0400   70     110/  6/  7   N/A
5NW MICH CITY    0400   66 65   90/  4/  4   N/A     0

$$

INZ004-005-014>016-021>024-050600-
NORTH CENTRAL INDIANA

CITY           SKY/WX    TMP DP  RH WIND       PRES   REMARKS
GOSHEN         CLEAR     62  59  90 CALM      30.06S FOG
SOUTH BEND     CLEAR     64  57  78 CALM      30.06S

$$

INZ006>009-017-018-025>027-050600-
NORTHEAST INDIANA

CITY           SKY/WX    TMP DP  RH WIND       PRES   REMARKS
ANGOLA *+        N/A     61  59  94 CALM      30.07S
FORT WAYNE     CLEAR     64  60  87 CALM      30.07R

$$

INZ028-029-035-036-043>045-051>053-050600-
WEST CENTRAL INDIANA

CITY           SKY/WX    TMP DP  RH WIND       PRES   REMARKS
CRAWFORDSVL +  CLEAR     59  58  97 CALM      30.06S
GREENCASTLE +  PTCLDY    64  57  77 CALM      30.06S
LAFAYETTE      CLEAR     63  61  93 CALM      30.05R FOG
TERRE HAUTE    PTCLDY    67  64  90 CALM      30.05R

$$

INZ030>032-037>040-046>048-054>057-064-065-050600-
CENTRAL INDIANA

CITY           SKY/WX    TMP DP  RH WIND       PRES   REMARKS
GREENWOOD *+   MOCLDY    64  61  88 CALM      30.07R
INDIANAPOLIS   PTCLDY    70  58  65 NE5       30.04R HAZE
-EAGLE CREEK   PTCLDY    68  62  81 CALM      30.05S
KOKOMO *+      CLEAR     64  61  88 CALM      30.06R
MT COMFORT *+  MOCLDY    63 N/A N/A CALM      30.07R
SHELBYVILLE    MOCLDY    66  62  87 CALM      30.05R

$$

INZ033-034-041-042-049-050-058-059-050600-
EAST CENTRAL INDIANA

CITY           SKY/WX    TMP DP  RH WIND       PRES   REMARKS
MUNCIE         PTCLDY    64  60  87 SE3       30.07R FOG

$$

INZ060-061-067>069-081>083-085>088-050600-
SOUTHWEST INDIANA

CITY           SKY/WX    TMP DP  RH WIND       PRES   REMARKS
EVANSVILLE     CLOUDY    73  67  81 N3        30.02S SMOKE
HUNTINGBURG *+ CLOUDY    70  66  88 NE3       30.03S

$$

INZ062-063-066-070>080-084-089>092-050600-
SOUTH CENTRAL AND SOUTHEAST INDIANA

CITY           SKY/WX    TMP DP  RH WIND       PRES   REMARKS
BLOOMINGTON    MOCLDY    67  65  93 CALM      30.06R FOG
MADISON *+     CLOUDY    70  64  83 CALM      30.07S
SEYMOUR +      CLOUDY    68  66  94 CALM      30.04S

$$



USA.gov is the U.S. government's official web portal to all federal, state and local government web resources and services.